This is the latest recevied weather packets stored in our database for station/object KF6FPU-15. If no packets are shown the sender has not sent any weather packets the latest 10 day(s).
| Time | Temp. | Humidity | Pressure | Rain* | Wind** | Luminosity | Snow |
|---|---|---|---|---|---|---|---|
| 1777948907 | 27.22° C | 20% | 1013.8 hPa | - | - | - | - |
| 1777948307 | 27.22° C | 20% | 1013.9 hPa | - | - | - | - |
| 1777947707 | 27.22° C | 20% | 1013.9 hPa | - | - | - | - |
| 1777947107 | 27.78° C | 20% | 1014 hPa | - | - | - | - |
| 1777946507 | 27.78° C | 20% | 1014.1 hPa | - | - | - | - |
| 1777945907 | 27.78° C | 20% | 1014 hPa | - | - | - | - |
| 1777945307 | 27.78° C | 20% | 1014.2 hPa | - | - | - | - |
| 1777944707 | 28.33° C | 20% | 1014.4 hPa | - | - | - | - |
| 1777944107 | 28.33° C | 20% | 1014.6 hPa | - | - | - | - |
| 1777942907 | 28.33° C | 19% | 1014.6 hPa | - | - | - | - |
| 1777942307 | 28.89° C | 19% | 1014.6 hPa | - | - | - | - |
| 1777941707 | 28.89° C | 19% | 1014.6 hPa | - | - | - | - |
| 1777941107 | 29.44° C | 19% | 1014.5 hPa | - | - | - | - |
| 1777940507 | 29.44° C | 19% | 1014.5 hPa | - | - | - | - |
| 1777939907 | 30° C | 19% | 1014.4 hPa | - | - | - | - |
| 1777939307 | 30.56° C | 19% | 1014.4 hPa | - | - | - | - |
| 1777938707 | 31.67° C | 19% | 1014.4 hPa | - | - | - | - |
| 1777938107 | 32.78° C | 18% | 1014.4 hPa | - | - | - | - |
| 1777937507 | 33.33° C | 18% | 1014.3 hPa | - | - | - | - |
| 1777936307 | 36.67° C | 17% | 1014.2 hPa | - | - | - | - |
| 1777935707 | 38.33° C | 17% | 1014.1 hPa | - | - | - | - |
| 1777935107 | 38.33° C | 17% | 1014.2 hPa | - | - | - | - |
| 1777934507 | 38.33° C | 17% | 1014.2 hPa | - | - | - | - |
| 1777933907 | 38.33° C | 17% | 1014.2 hPa | - | - | - | - |
| 1777933307 | 38.33° C | 17% | 1014.3 hPa | - | - | - | - |
* Rain since midnight (hover to see other rain measurements)
** Current wind speed in m/s (hover to see current wind gust speed)